Regional Weather Roundup
Issued by NWS Kansas City/Pleasant Hill, MO

Home | Current Version | Previous Version | Text Only | Print | Product List | Glossary On
Versions: 1 2 3 4 5 6 7 8 9 10 11 12 13 14 15 16 17 18 19 20 21 22 23 24 25 26 27
000
ASUS43 KEAX 200810
RWREAX

WEATHER ROUNDUP FOR EASTERN KANSAS AND NORTHWEST MISSOURI
NATIONAL WEATHER SERVICE KANSAS CITY/PLEASANT HILL MO
200 AM CST MON FEB 20 2017

KSZ040-057-103>105-MOZ028-029-037-043-200900-
...KANSAS CITY METROPOLITAN AREA...

CITY           SKY/WX    TMP DP  RH WIND       PRES   REMARKS
K.C. INTL      CLOUDY    63  55  75 S17       29.86F
K.C. DOWNTOWN  CLOUDY    64  56  75 SE14G23   29.86F
LEES SUMMIT    CLOUDY    62  56  80 S16       29.88F
OLATHE - IXD   CLOUDY    61  54  77 SE13      29.86F
OLATHE - OJC   CLOUDY    59  56  89 SE10      29.86F
LAWRENCE       CLOUDY    59  54  83 E10       29.83F

$$

MOZ001>008-011>017-020>025-030>033-038>040-044>046-053-054-200900-
...NORTHERN AND CENTRAL MISSOURI...

CITY           SKY/WX    TMP DP  RH WIND       PRES   REMARKS
ST. JOSEPH     CLOUDY    63  56  78 SE10      29.85F
WARRENSBURG    CLOUDY    59  54  82 SE13      29.91F
WHITEMAN AFB   MOCLDY    60  60 100 S9        29.91F
CLINTON        MOCLDY    61  55  82 SE12      29.92F
SEDALIA        CLEAR     60  55  83 SE12      29.95F
WARSAW         NOT AVBL
CHILLICOTHE      N/A     60  54  80 S8        29.92F
KIRKSVILLE     CLOUDY    53  49  86 SE7       29.96S

$$

MOZ041-047>049-056>058-063>065-088>090-097-200900-
...EASTERN AND SOUTHERN MISSOURI...

CITY           SKY/WX    TMP DP  RH WIND       PRES   REMARKS
ST. LOUIS INTL PTCLDY    54  50  86 SE8       30.05R
SPIRIT OF STL  CLEAR     48  48 100 CALM      30.03R FOG
COLUMBIA       PTCLDY    60  56  86 S12       29.98F
JEFFERSON CITY PTCLDY    60  55  83 SE8       29.99S
ROLLA          MOCLDY    58  55  90 S12       30.01R
OSAGE BEACH    PTCLDY    60  55  83 S8        29.99F
SPRINGFIELD    CLOUDY    60  56  86 SE18      29.95F
BRANSON        CLOUDY    59  55  88 SE10      30.00F
JOPLIN         CLOUDY    64  55  72 SE13G23   29.88F
WEST PLAINS    CLOUDY    57  55  93 SE6       30.06R

$$

IAZ060-094-KSZ022-034>040-054-083-096-NEZ052-066-093-200900-
...KANSAS...SOUTHEAST NEBRASKA AND IOWA...

CITY           SKY/WX    TMP DP  RH WIND       PRES   REMARKS
TOPEKA         LGT RAIN  64  56  75 SE15G23   29.80F
MANHATTAN      LGT RAIN  60  58  92 SE5       29.77F
EMPORIA        TSTM      59  58  96 S14       29.84R FOG
CHANUTE        CLOUDY    66  54  65 SE16G23   29.84F
WICHITA        LGT RAIN  57  55  93 SE8       29.77F FOG
OMAHA          CLOUDY    59  52  77 S15       29.78F
LINCOLN        CLOUDY    60  55  83 S15       29.76S
FALLS CITY     CLOUDY    55  52  89 SE6       29.81F
LAMONI         CLOUDY    57  48  72 SE6       29.88S
DES MOINES     CLOUDY    60  47  61 SE9       29.88F

$$





USA.gov is the U.S. government's official web portal to all federal, state and local government web resources and services.